| time (UTC) | temp F | wind direction | speed MPH | gust MPH | rain 1hr in | rain 24hr in | rain mn in | humidity % | barometer mb |
| 20260904035939 | 71 | 182 | 0.0 | 0.0 | 0.00 | 0.30 | 0.30 | 95 | 1010.2 |
| 20260904034506 | 71 | 182 | 0.0 | 0.0 | 0.00 | 0.30 | 0.30 | 95 | 1010.2 |
| 20260904033507 | 71 | 182 | 0.0 | 0.0 | 0.00 | 0.30 | 0.30 | 95 | 1010.2 |
| 20260904032950 | 71 | 182 | 0.0 | 0.0 | 0.00 | 0.30 | 0.30 | 95 | 1010.5 |
| 20260904031503 | 71 | 182 | 0.0 | 1.0 | 0.00 | 0.30 | 0.30 | 95 | 1010.4 |
| 20260904030504 | 72 | 182 | 0.0 | 1.0 | 0.00 | 0.30 | 0.30 | 95 | 1010.5 |
| 20260904025505 | 72 | 182 | 0.0 | 1.0 | 0.00 | 0.30 | 0.30 | 95 | 1010.7 |
| 20260904024945 | 72 | 182 | 0.0 | 1.0 | 0.00 | 0.30 | 0.30 | 95 | 1010.6 |
| 20260904023500 | 72 | 182 | 0.0 | 0.0 | 0.00 | 0.30 | 0.30 | 95 | 1010.5 |
| 20260904022503 | 72 | 182 | 0.0 | 0.0 | 0.00 | 0.30 | 0.30 | 95 | 1010.4 |
| 20260904021503 | 72 | 182 | 0.0 | 0.0 | 0.00 | 0.30 | 0.30 | 95 | 1010.7 |
| 20260904020940 | 72 | 182 | 0.0 | 0.0 | 0.00 | 0.30 | 0.30 | 95 | 1010.8 |
| 20260904015942 | 73 | 182 | 0.0 | 0.0 | 0.00 | 0.30 | 0.30 | 95 | 1010.9 |
| 20260904014941 | 73 | 182 | 0.0 | 0.0 | 0.00 | 0.30 | 0.30 | 95 | 1011.0 |
| 20260904013504 | 73 | 182 | 0.0 | 1.0 | 0.00 | 0.30 | 0.30 | 95 | 1011.1 |
| 20260904012501 | 73 | 182 | 0.0 | 0.0 | 0.00 | 0.30 | 0.30 | 95 | 1011.0 |
| 20260904011501 | 73 | 182 | 0.0 | 1.0 | 0.00 | 0.30 | 0.30 | 94 | 1010.9 |
| 20260904011432 | 73 | 182 | 0.0 | 0.0 | 0.00 | 0.30 | 0.30 | 94 | 1010.7 |
| 20260904005503 | 73 | 182 | 0.0 | 0.0 | 0.00 | 0.30 | 0.30 | 94 | 1010.7 |
| 20260904004501 | 73 | 182 | 0.0 | 0.0 | 0.00 | 0.30 | 0.30 | 94 | 1010.7 |
| 20260904003948 | 74 | 182 | 0.0 | 0.0 | 0.00 | 0.30 | 0.30 | 94 | 1010.6 |
| 20260904002930 | 74 | 182 | 0.0 | 0.0 | 0.00 | 0.30 | 0.30 | 93 | 1010.7 |
| 20260904001456 | 74 | 182 | 0.0 | 0.0 | 0.00 | 0.30 | 0.30 | 93 | 1010.6 |
| 20260904000457 | 74 | 182 | 0.0 | 0.0 | 0.00 | 0.30 | 0.30 | 93 | 1010.0 |
| 20260903235457 | 75 | 182 | 0.0 | 0.0 | 0.00 | 0.30 | 0.30 | 92 | 1010.0 |
| 20260903234454 | 75 | 182 | 0.0 | 0.0 | 0.00 | 0.30 | 0.30 | 92 | 1010.0 |
| 20260903233455 | 75 | 182 | 0.0 | 0.0 | 0.00 | 0.30 | 0.30 | 92 | 1010.1 |
| 20260903232454 | 76 | 182 | 0.0 | 0.0 | 0.00 | 0.30 | 0.30 | 92 | 1010.0 |
| 20260903231456 | 76 | 182 | 0.0 | 0.0 | 0.00 | 0.30 | 0.30 | 91 | 1010.1 |
| 20260903230456 | 76 | 182 | 0.0 | 0.0 | 0.00 | 0.30 | 0.30 | 91 | 1010.0 |
| 20260903225453 | 77 | 182 | 0.0 | 0.0 | 0.00 | 0.30 | 0.30 | 91 | 1010.0 |
| 20260903224454 | 77 | 182 | 0.0 | 0.0 | 0.00 | 0.30 | 0.30 | 90 | 1009.9 |
| 20260903223452 | 77 | 182 | 0.0 | 0.0 | 0.00 | 0.30 | 0.30 | 90 | 1009.9 |
| 20260903222455 | 78 | 182 | 0.0 | 1.0 | 0.00 | 0.30 | 0.30 | 89 | 1010.1 |
| 20260903221452 | 78 | 182 | 0.0 | 2.0 | 0.00 | 0.30 | 0.30 | 89 | 1010.3 |
| 20260903220449 | 78 | 182 | 0.0 | 2.0 | 0.00 | 0.30 | 0.30 | 89 | 1010.2 |
| 20260903215451 | 78 | 182 | 0.0 | 0.0 | 0.00 | 0.30 | 0.30 | 89 | 1010.2 |
| 20260903214927 | 78 | 182 | 0.0 | 0.0 | 0.00 | 0.30 | 0.30 | 89 | 1010.1 |
| 20260903213450 | 78 | 182 | 0.0 | 2.0 | 0.00 | 0.30 | 0.30 | 89 | 1010.1 |
| 20260903212450 | 78 | 182 | 0.0 | 0.0 | 0.00 | 0.30 | 0.30 | 90 | 1010.1 |
| 20260903211450 | 78 | 182 | 0.0 | 0.0 | 0.00 | 0.30 | 0.30 | 89 | 1010.0 |
| 20260903210928 | 78 | 182 | 0.0 | 0.0 | 0.00 | 0.30 | 0.30 | 89 | 1010.1 |
| 20260903205452 | 78 | 182 | 0.0 | 1.0 | 0.00 | 0.30 | 0.30 | 89 | 1010.0 |
| 20260903204451 | 78 | 182 | 0.0 | 0.0 | 0.00 | 0.30 | 0.30 | 90 | 1010.2 |
| 20260903203450 | 78 | 182 | 0.0 | 0.0 | 0.00 | 0.30 | 0.30 | 89 | 1010.2 |
| 20260903202448 | 78 | 182 | 0.0 | 0.0 | 0.00 | 0.30 | 0.30 | 88 | 1010.3 |
| 20260903201450 | 78 | 182 | 0.0 | 0.0 | 0.00 | 0.30 | 0.30 | 87 | 1010.2 |
| 20260903200450 | 78 | 182 | 0.0 | 1.0 | 0.00 | 0.30 | 0.30 | 87 | 1010.3 |
| 20260903195449 | 78 | 182 | 0.0 | 0.0 | 0.00 | 0.30 | 0.30 | 87 | 1010.3 |
| 20260903194450 | 78 | 182 | 0.0 | 0.0 | 0.00 | 0.30 | 0.30 | 87 | 1010.5 |
| 20260903193449 | 78 | 182 | 0.0 | 0.0 | 0.00 | 0.30 | 0.30 | 88 | 1010.5 |
| 20260903192933 | 78 | 182 | 0.0 | 0.0 | 0.00 | 0.30 | 0.30 | 86 | 1010.6 |
| 20260903191450 | 79 | 182 | 0.0 | 0.0 | 0.00 | 0.30 | 0.30 | 86 | 1010.7 |
| 20260903190449 | 79 | 182 | 0.0 | 0.0 | 0.00 | 0.30 | 0.30 | 84 | 1010.8 |
| 20260903185927 | 79 | 182 | 0.0 | 0.0 | 0.00 | 0.30 | 0.30 | 84 | 1010.9 |
| 20260903184443 | 79 | 182 | 0.0 | 3.0 | 0.00 | 0.30 | 0.30 | 83 | 1010.8 |
| 20260903183444 | 79 | 182 | 0.0 | 3.0 | 0.00 | 0.30 | 0.30 | 84 | 1010.9 |
| 20260903182916 | 78 | 182 | 0.0 | 0.0 | 0.00 | 0.30 | 0.30 | 86 | 1011.1 |
| 20260903181443 | 78 | 182 | 0.0 | 0.0 | 0.00 | 0.30 | 0.30 | 84 | 1011.1 |
| 20260903180443 | 78 | 182 | 0.0 | 3.0 | 0.00 | 0.30 | 0.30 | 84 | 1011.1 |
| 20260903175919 | 78 | 182 | 1.0 | 3.0 | 0.00 | 0.30 | 0.30 | 84 | 1011.2 |
| 20260903174442 | 77 | 182 | 1.0 | 5.0 | 0.00 | 0.30 | 0.30 | 84 | 1011.2 |
| 20260903173443 | 77 | 182 | 0.0 | 2.0 | 0.00 | 0.30 | 0.30 | 87 | 1011.2 |
| 20260903172438 | 77 | 182 | 0.0 | 3.0 | 0.00 | 0.30 | 0.30 | 86 | 1011.3 |
| 20260903171438 | 76 | 182 | 0.0 | 3.0 | 0.00 | 0.30 | 0.30 | 87 | 1011.4 |
| 20260903170437 | 76 | 182 | 0.0 | 2.0 | 0.00 | 0.30 | 0.30 | 88 | 1011.3 |
| 20260903165437 | 76 | 182 | 0.0 | 4.0 | 0.00 | 0.30 | 0.30 | 89 | 1011.3 |
| 20260903164913 | 75 | 182 | 0.0 | 4.0 | 0.00 | 0.30 | 0.30 | 90 | 1011.4 |
| 20260903163437 | 75 | 182 | 1.0 | 3.0 | 0.00 | 0.30 | 0.30 | 89 | 1011.5 |
| 20260903162438 | 74 | 182 | 0.0 | 5.0 | 0.00 | 0.30 | 0.30 | 91 | 1011.7 |
| 20260903161437 | 73 | 182 | 2.0 | 5.0 | 0.00 | 0.30 | 0.30 | 91 | 1011.9 |
| 20260903160438 | 73 | 182 | 0.0 | 4.0 | 0.00 | 0.30 | 0.30 | 93 | 1012.0 |
| 20260903155431 | 73 | 182 | 0.0 | 2.0 | 0.00 | 0.30 | 0.30 | 93 | 1012.1 |
| 20260903154431 | 72 | 182 | 0.0 | 2.0 | 0.00 | 0.30 | 0.30 | 93 | 1012.1 |
| 20260903153431 | 72 | 182 | 0.0 | 2.0 | 0.00 | 0.30 | 0.30 | 94 | 1012.1 |
| 20260903152430 | 72 | 182 | 0.0 | 2.0 | 0.00 | 0.30 | 0.30 | 95 | 1012.2 |
| 20260903151431 | 71 | 182 | 0.0 | 3.0 | 0.00 | 0.30 | 0.30 | 95 | 1012.2 |
| 20260903150908 | 71 | 182 | 1.0 | 3.0 | 0.00 | 0.30 | 0.30 | 95 | 1012.2 |
| 20260903145432 | 71 | 182 | 1.0 | 6.0 | 0.00 | 0.30 | 0.30 | 96 | 1012.3 |
| 20260903144430 | 70 | 178 | 0.0 | 3.0 | 0.00 | 0.30 | 0.30 | 96 | 1012.1 |
| 20260903143431 | 70 | 178 | 0.0 | 2.0 | 0.00 | 0.30 | 0.30 | 96 | 1012.1 |
| 20260903143356 | 70 | 178 | 0.0 | 2.0 | 0.00 | 0.30 | 0.30 | 96 | 1012.1 |
| 20260903141906 | 70 | 178 | 0.0 | 2.0 | 0.00 | 0.30 | 0.30 | 96 | 1012.2 |
| 20260903140425 | 70 | 178 | 0.0 | 2.0 | 0.00 | 0.30 | 0.30 | 96 | 1012.3 |
| 20260903135424 | 69 | 178 | 0.0 | 2.0 | 0.00 | 0.30 | 0.30 | 96 | 1012.2 |
| 20260903134423 | 69 | 178 | 0.0 | 3.0 | 0.00 | 0.30 | 0.30 | 96 | 1012.3 |
| 20260903133424 | 69 | 178 | 0.0 | 3.0 | 0.00 | 0.30 | 0.30 | 96 | 1012.3 |
| 20260903132425 | 69 | 178 | 0.0 | 1.0 | 0.00 | 0.30 | 0.30 | 97 | 1012.5 |
| 20260903131424 | 68 | 178 | 0.0 | 2.0 | 0.00 | 0.30 | 0.30 | 96 | 1012.8 |
| 20260903130900 | 67 | 176 | 0.0 | 0.0 | 0.00 | 0.30 | 0.30 | 96 | 1012.9 |
| 20260903125422 | 67 | 176 | 0.0 | 0.0 | 0.00 | 0.30 | 0.30 | 96 | 1013.0 |
| 20260903124422 | 67 | 176 | 0.0 | 0.0 | 0.00 | 0.30 | 0.30 | 96 | 1012.9 |
| 20260903123423 | 66 | 176 | 0.0 | 0.0 | 0.01 | 0.30 | 0.30 | 96 | 1013.1 |
| 20260903122421 | 66 | 176 | 0.0 | 0.0 | 0.01 | 0.30 | 0.30 | 96 | 1013.2 |
| 20260903121423 | 66 | 176 | 0.0 | 0.0 | 0.01 | 0.30 | 0.30 | 96 | 1013.2 |
| 20260903120423 | 65 | 176 | 0.0 | 0.0 | 0.01 | 0.30 | 0.30 | 96 | 1013.4 |
| 20260903115423 | 65 | 176 | 0.0 | 0.0 | 0.01 | 0.30 | 0.30 | 96 | 1013.6 |
| 20260903114902 | 65 | 176 | 0.0 | 0.0 | 0.01 | 0.30 | 0.30 | 96 | 1013.6 |
| 20260903113423 | 65 | 176 | 0.0 | 0.0 | 0.00 | 0.29 | 0.29 | 96 | 1013.7 |
| 20260903112421 | 65 | 176 | 0.0 | 0.0 | 0.01 | 0.29 | 0.29 | 96 | 1013.7 |
| 20260903111423 | 65 | 176 | 0.0 | 0.0 | 0.01 | 0.29 | 0.29 | 96 | 1013.6 |
| 20260903110423 | 65 | 176 | 0.0 | 0.0 | 0.01 | 0.29 | 0.29 | 96 | 1013.5 |
| 20260903105423 | 65 | 176 | 0.0 | 0.0 | 0.01 | 0.29 | 0.29 | 96 | 1013.7 |
| 20260903104421 | 65 | 176 | 0.0 | 0.0 | 0.01 | 0.29 | 0.29 | 96 | 1013.6 |
| 20260903103424 | 64 | 176 | 0.0 | 0.0 | 0.01 | 0.29 | 0.29 | 96 | 1013.5 |
| 20260903102421 | 64 | 176 | 0.0 | 0.0 | 0.00 | 0.28 | 0.28 | 96 | 1013.5 |
| 20260903101423 | 64 | 176 | 0.0 | 0.0 | 0.01 | 0.28 | 0.28 | 96 | 1013.4 |
| 20260903100425 | 64 | 176 | 0.0 | 0.0 | 0.12 | 0.28 | 0.28 | 96 | 1013.3 |
| 20260903095423 | 64 | 176 | 0.0 | 0.0 | 0.12 | 0.28 | 0.28 | 96 | 1013.2 |
| 20260903094423 | 64 | 176 | 0.0 | 0.0 | 0.17 | 0.28 | 0.28 | 96 | 1012.9 |
| 20260903093423 | 64 | 176 | 0.0 | 0.0 | 0.17 | 0.28 | 0.28 | 96 | 1012.8 |
| 20260903092419 | 64 | 176 | 0.0 | 0.0 | 0.17 | 0.28 | 0.28 | 96 | 1012.9 |
| 20260903091905 | 64 | 176 | 0.0 | 0.0 | 0.16 | 0.27 | 0.27 | 96 | 1013.2 |
| 20260903090417 | 64 | 176 | 0.0 | 0.0 | 0.05 | 0.16 | 0.16 | 96 | 1013.5 |
| 20260903085418 | 64 | 176 | 0.0 | 0.0 | 0.05 | 0.16 | 0.16 | 96 | 1013.4 |
| 20260903084412 | 64 | 176 | 0.0 | 0.0 | 0.00 | 0.11 | 0.11 | 96 | 1013.4 |
| 20260903083413 | 64 | 176 | 0.0 | 0.0 | 0.00 | 0.11 | 0.11 | 96 | 1013.3 |
| 20260903083325 | 64 | 176 | 0.0 | 0.0 | 0.00 | 0.11 | 0.11 | 96 | 1013.5 |
| 20260903081412 | 64 | 176 | 0.0 | 0.0 | 0.00 | 0.11 | 0.11 | 95 | 1013.8 |
| 20260903080413 | 64 | 176 | 0.0 | 0.0 | 0.00 | 0.11 | 0.11 | 95 | 1013.8 |
| 20260903075413 | 64 | 176 | 0.0 | 0.0 | 0.00 | 0.11 | 0.11 | 95 | 1013.7 |
| 20260903074411 | 64 | 176 | 0.0 | 0.0 | 0.00 | 0.11 | 0.11 | 95 | 1013.6 |
| 20260903073413 | 63 | 176 | 0.0 | 0.0 | 0.00 | 0.11 | 0.11 | 95 | 1013.8 |
| 20260903072414 | 63 | 176 | 0.0 | 0.0 | 0.01 | 0.11 | 0.11 | 95 | 1014.0 |
| 20260903071406 | 63 | 176 | 0.0 | 0.0 | 0.01 | 0.11 | 0.11 | 95 | 1014.2 |
| 20260903070405 | 63 | 176 | 0.0 | 0.0 | 0.04 | 0.11 | 0.11 | 95 | 1014.0 |
| 20260903065844 | 64 | 176 | 0.0 | 0.0 | 0.07 | 0.11 | 0.11 | 95 | 1014.2 |
| 20260903064406 | 64 | 176 | 0.0 | 0.0 | 0.08 | 0.12 | 0.11 | 94 | 1014.1 |
| 20260903064328 | 64 | 176 | 0.0 | 0.0 | 0.11 | 0.12 | 0.11 | 94 | 1014.3 |
| 20260903062837 | 64 | 176 | 0.0 | 0.0 | 0.10 | 0.11 | 0.10 | 94 | 1014.0 |
| 20260903061405 | 64 | 176 | 0.0 | 0.0 | 0.10 | 0.11 | 0.10 | 93 | 1014.3 |
| 20260903060405 | 64 | 176 | 0.0 | 0.0 | 0.07 | 0.08 | 0.07 | 93 | 1014.7 |
| 20260903055406 | 65 | 176 | 0.0 | 0.0 | 0.04 | 0.05 | 0.04 | 92 | 1015.4 |
| 20260903054838 | 65 | 176 | 0.0 | 0.0 | 0.03 | 0.04 | 0.03 | 92 | 1015.9 |
| 20260903053401 | 65 | 176 | 0.0 | 0.0 | 0.00 | 0.01 | 0.00 | 91 | 1016.2 |
| 20260903052359 | 65 | 176 | 0.0 | 0.0 | 0.00 | 0.01 | 0.00 | 90 | 1016.3 |
| 20260903051359 | 65 | 176 | 0.0 | 0.0 | 0.00 | 0.01 | 0.00 | 89 | 1016.3 |
| 20260903050835 | 65 | 176 | 0.0 | 0.0 | 0.00 | 0.01 | 0.00 | 89 | 1016.5 |
| 20260903045400 | 65 | 176 | 0.0 | 0.0 | 0.00 | 0.01 | 0.00 | 89 | 1016.4 |
| 20260903044401 | 65 | 176 | 0.0 | 0.0 | 0.00 | 0.01 | 0.00 | 88 | 1016.3 |
| 20260903043359 | 65 | 176 | 0.0 | 0.0 | 0.00 | 0.01 | 0.00 | 88 | 1016.6 |
| 20260903042400 | 65 | 176 | 0.0 | 0.0 | 0.00 | 0.01 | 0.00 | 88 | 1016.6 |
| 20260903041355 | 65 | 176 | 0.0 | 0.0 | 0.00 | 0.01 | 0.00 | 88 | 1016.8 |